ZAP583 EGPK-EGPF

Flight info

Callsign ZAP583
Flight time 0h 30m
Altitude 8000
Route TRN DCT ROBBO/N0273F070
Aircraft A320/M-SDE3FGHIRWY/LB1

Departure

Time 2026-05-04 14:37
Airport Glasgow Prestwick Airport (EGPK)

Arrival

Time 2026-05-04 15:07
Airport Glasgow Airport (EGPF)
Time Latitude Longitude Altitude Speed Heading
2026-05-04 14:25 55.50932 -4.58415 68 ft 0 kts 300°
2026-05-04 14:32 55.50943 -4.58562 68 ft 15 kts 250°
2026-05-04 14:32 55.50890 -4.58757 64 ft 17 kts 244°
2026-05-04 14:32 55.50866 -4.58853 59 ft 0 kts 245°
2026-05-04 14:34 55.50863 -4.58866 59 ft 4 kts 245°
2026-05-04 14:34 55.50821 -4.59012 60 ft 12 kts 219°
2026-05-04 14:34 55.50751 -4.58918 61 ft 16 kts 119°
2026-05-04 14:35 55.50688 -4.58718 61 ft 21 kts 119°
2026-05-04 14:35 55.50608 -4.58474 64 ft 25 kts 123°
2026-05-04 14:35 55.50510 -4.58190 68 ft 29 kts 124°
2026-05-04 14:35 55.50391 -4.57862 71 ft 34 kts 122°
2026-05-04 14:36 55.50298 -4.57544 70 ft 20 kts 110°
2026-05-04 14:36 55.50276 -4.57537 71 ft 5 kts 270°
2026-05-04 14:36 55.50280 -4.57549 68 ft 0 kts 295°
2026-05-04 14:36 55.50370 -4.57822 69 ft 80 kts 302°
2026-05-04 14:37 55.50843 -4.59180 339 ft 159 kts 300°
2026-05-04 14:37 55.51470 -4.60942 1413 ft 172 kts 301°
2026-05-04 14:37 55.52121 -4.62827 2205 ft 191 kts 301°
2026-05-04 14:37 55.52850 -4.64945 3017 ft 210 kts 301°
2026-05-04 14:38 55.53476 -4.67305 4133 ft 217 kts 282°
2026-05-04 14:38 55.53351 -4.69986 5238 ft 229 kts 250°
2026-05-04 14:38 55.52373 -4.72233 5780 ft 238 kts 216°
2026-05-04 14:38 55.50817 -4.73233 5955 ft 240 kts 196°
2026-05-04 14:39 55.49132 -4.73686 6086 ft 261 kts 179°
2026-05-04 14:39 55.47337 -4.72637 7019 ft 284 kts 149°
2026-05-04 14:39 55.45969 -4.70074 7687 ft 294 kts 118°
2026-05-04 14:40 55.46074 -4.63169 8065 ft 292 kts 62°
2026-05-04 14:40 55.47095 -4.60073 8082 ft 291 kts 54°
2026-05-04 14:40 55.48247 -4.57149 8082 ft 291 kts 52°
2026-05-04 14:40 55.49415 -4.54251 8084 ft 291 kts 53°
2026-05-04 14:41 55.50560 -4.51301 8089 ft 291 kts 54°
2026-05-04 14:41 55.51298 -4.49319 8082 ft 291 kts 55°
2026-05-04 14:41 55.53446 -4.43235 8079 ft 291 kts 57°
2026-05-04 14:42 55.55550 -4.37033 8065 ft 295 kts 57°
2026-05-04 14:42 55.56598 -4.33916 8069 ft 296 kts 57°
2026-05-04 14:42 55.57664 -4.30752 8069 ft 298 kts 57°
2026-05-04 14:43 55.58716 -4.27631 8057 ft 294 kts 57°
2026-05-04 14:43 55.59751 -4.24565 8059 ft 294 kts 57°
2026-05-04 14:43 55.60795 -4.21461 7934 ft 292 kts 57°
2026-05-04 14:43 55.61827 -4.18389 7562 ft 290 kts 58°
2026-05-04 14:44 55.62858 -4.15318 7174 ft 289 kts 58°
2026-05-04 14:44 55.63881 -4.12269 6832 ft 286 kts 57°
2026-05-04 14:44 55.64900 -4.09228 6467 ft 285 kts 58°
2026-05-04 14:44 55.65910 -4.06213 6112 ft 283 kts 57°
2026-05-04 14:45 55.66891 -4.03276 6033 ft 270 kts 57°
2026-05-04 14:45 55.67804 -4.00531 6041 ft 254 kts 57°
2026-05-04 14:45 55.68673 -3.97913 6044 ft 238 kts 57°
2026-05-04 14:45 55.69487 -3.95462 6045 ft 224 kts 58°
2026-05-04 14:46 55.70231 -3.93049 6040 ft 224 kts 68°
2026-05-04 14:46 55.70360 -3.90311 6046 ft 226 kts 104°
2026-05-04 14:46 55.69667 -3.87895 6045 ft 221 kts 137°
2026-05-04 14:46 55.68401 -3.86476 6049 ft 214 kts 169°
2026-05-04 14:47 55.66964 -3.86352 6051 ft 204 kts 199°
2026-05-04 14:47 55.65722 -3.87410 6048 ft 198 kts 224°
2026-05-04 14:47 55.64906 -3.89304 6049 ft 193 kts 245°
2026-05-04 14:47 55.64329 -3.91415 6045 ft 192 kts 248°
2026-05-04 14:48 55.63770 -3.93602 6037 ft 194 kts 248°
2026-05-04 14:48 55.63240 -3.95684 6038 ft 181 kts 248°
2026-05-04 14:48 55.62746 -3.97616 6079 ft 164 kts 248°
2026-05-04 14:48 55.62286 -3.99431 6047 ft 159 kts 250°
2026-05-04 14:49 55.62012 -4.01325 6043 ft 160 kts 265°
2026-05-04 14:49 55.62136 -4.03279 6048 ft 162 kts 289°
2026-05-04 14:49 55.62831 -4.04836 6049 ft 167 kts 324°
2026-05-04 14:49 55.63968 -4.05301 5922 ft 174 kts
2026-05-04 14:50 55.65041 -4.04273 5837 ft 184 kts 42°
2026-05-04 14:50 55.65878 -4.02548 5795 ft 185 kts 46°
2026-05-04 14:50 55.66703 -4.00815 5755 ft 184 kts 46°
2026-05-04 14:50 55.67531 -3.99080 5712 ft 184 kts 45°
2026-05-04 14:51 55.68360 -3.97348 5671 ft 184 kts 46°
2026-05-04 14:51 55.69191 -3.95629 5626 ft 184 kts 45°
2026-05-04 14:51 55.70247 -3.94529 5573 ft 174 kts
2026-05-04 14:51 55.71383 -3.94824 5547 ft 165 kts 330°
2026-05-04 14:52 55.72412 -3.95716 5518 ft 164 kts 333°
2026-05-04 14:52 55.73438 -3.96414 5473 ft 149 kts 336°
2026-05-04 14:52 55.74354 -3.97012 5430 ft 132 kts 334°
2026-05-04 14:52 55.75180 -3.97560 5394 ft 124 kts 335°
2026-05-04 14:53 55.75976 -3.98095 5367 ft 123 kts 335°
2026-05-04 14:53 55.76770 -3.98635 5341 ft 122 kts 332°
2026-05-04 14:53 55.77562 -3.99182 5312 ft 122 kts 333°
2026-05-04 14:53 55.78358 -3.99734 5289 ft 122 kts 332°
2026-05-04 14:54 55.79148 -4.00279 5261 ft 122 kts 333°
2026-05-04 14:54 55.79941 -4.00825 5234 ft 122 kts 334°
2026-05-04 14:54 55.80732 -4.01374 5207 ft 123 kts 334°
2026-05-04 14:54 55.81522 -4.01925 5185 ft 121 kts 333°
2026-05-04 14:55 55.82312 -4.02474 5158 ft 121 kts 333°
2026-05-04 14:55 55.83100 -4.03022 5123 ft 122 kts 335°
2026-05-04 14:55 55.83887 -4.03575 5100 ft 121 kts 333°
2026-05-04 14:55 55.84670 -4.04126 5075 ft 121 kts 333°
2026-05-04 14:56 55.85455 -4.04679 5041 ft 122 kts 335°
2026-05-04 14:56 55.86246 -4.05233 5020 ft 122 kts 333°
2026-05-04 14:56 55.87036 -4.05787 4991 ft 121 kts 335°
2026-05-04 14:56 55.87816 -4.06339 4878 ft 125 kts 335°
2026-05-04 14:57 55.88601 -4.06892 4831 ft 120 kts 334°
2026-05-04 14:57 55.89384 -4.07443 4809 ft 120 kts 334°
2026-05-04 14:57 55.90165 -4.07994 4778 ft 120 kts 334°
2026-05-04 14:57 55.90945 -4.08545 4743 ft 121 kts 335°
2026-05-04 14:58 55.91726 -4.09096 4724 ft 120 kts 333°
2026-05-04 14:58 55.92509 -4.09646 4644 ft 121 kts 335°
2026-05-04 14:58 55.93291 -4.10196 4506 ft 120 kts 334°
2026-05-04 14:58 55.94067 -4.10745 4372 ft 119 kts 332°
2026-05-04 14:59 55.94843 -4.11297 4198 ft 120 kts 334°
2026-05-04 14:59 55.95613 -4.11843 4031 ft 119 kts 333°
2026-05-04 14:59 55.97147 -4.12929 3675 ft 119 kts 335°
2026-05-04 15:00 55.97910 -4.13472 3503 ft 119 kts 334°
2026-05-04 15:00 55.98677 -4.14019 3322 ft 119 kts 333°
2026-05-04 15:00 55.99443 -4.14564 3150 ft 118 kts 331°
2026-05-04 15:01 56.00428 -4.16668 2862 ft 116 kts 281°
2026-05-04 15:01 56.00382 -4.18107 2832 ft 119 kts 251°
2026-05-04 15:01 55.99797 -4.19182 2821 ft 123 kts 225°
2026-05-04 15:01 55.99292 -4.20380 2830 ft 122 kts 239°
2026-05-04 15:02 55.98741 -4.21515 2832 ft 119 kts 235°
2026-05-04 15:02 55.98186 -4.22611 2829 ft 118 kts 235°
2026-05-04 15:02 55.97621 -4.23705 2778 ft 122 kts 230°
2026-05-04 15:02 55.97040 -4.24817 2674 ft 122 kts 232°
2026-05-04 15:03 55.96461 -4.25916 2547 ft 120 kts 234°
2026-05-04 15:03 55.95886 -4.27002 2391 ft 120 kts 232°
2026-05-04 15:03 55.95311 -4.28088 2229 ft 120 kts 231°
2026-05-04 15:03 55.94743 -4.29159 2076 ft 118 kts 232°
2026-05-04 15:04 55.94176 -4.30225 1911 ft 119 kts 231°
2026-05-04 15:04 55.93616 -4.31278 1751 ft 115 kts 235°
2026-05-04 15:04 55.93067 -4.32311 1585 ft 115 kts 234°
2026-05-04 15:04 55.92515 -4.33350 1437 ft 117 kts 235°
2026-05-04 15:05 55.91952 -4.34407 1254 ft 119 kts 230°
2026-05-04 15:05 55.91383 -4.35473 1092 ft 119 kts 230°
2026-05-04 15:05 55.90821 -4.36518 965 ft 119 kts 230°
2026-05-04 15:05 55.90217 -4.37535 793 ft 117 kts 229°
2026-05-04 15:06 55.89682 -4.38591 629 ft 118 kts 234°
2026-05-04 15:06 55.89135 -4.39684 462 ft 119 kts 231°
2026-05-04 15:06 55.88568 -4.40719 282 ft 114 kts 233°
2026-05-04 15:07 55.87526 -4.42718 29 ft 89 kts 226°
2026-05-04 15:07 55.87297 -4.43143 29 ft 18 kts 224°
2026-05-04 15:07 55.87221 -4.43249 29 ft 12 kts 190°
2026-05-04 15:07 55.87201 -4.43121 29 ft 15 kts 83°
2026-05-04 15:08 55.87205 -4.42910 29 ft 20 kts 90°
2026-05-04 15:08 55.87182 -4.42732 29 ft 11 kts 178°
2026-05-04 15:08 55.87090 -4.42792 29 ft 17 kts 208°
2026-05-04 15:08 55.86971 -4.42874 29 ft 21 kts 202°
2026-05-04 15:09 55.86834 -4.42998 29 ft 20 kts 194°
2026-05-04 15:09 55.86720 -4.42978 29 ft 11 kts 220°
2026-05-04 15:09 55.86708 -4.43051 29 ft 0 kts 252°